Sangster International Airport
MKJS : now visible

Airfield :











YOU CAN JOIN US ON...

 
LOGIN :

Register | Disclaimer

   EN    FR    IT 

 









Legend :    VFR   Marginal VFR   IFR   Intensive IFR   Very Intensive IFR
Visi :
Ceiling :
>= 8 km
>= 3000ft
5 to 8 km
1000 to 3000 ft
1500m to 5 km
500 to 1000 ft
800 to 1500m
200 to 500 ft
< 800m
< 200 ft
Symbols :   Thunderstorms  Fog  Heavy snow  Heavy precipitations  Wind > 20 kt






- Airport Elevation : 4 ft
- IATA code : MBJ


MKJS - Sangster International

CURRENT METAR :
  • 280200Z 08003KT 9999 FEW022CB 29/24 Q1013

EXPIRED METARs :
  • 280100Z 20005KT 9999 VCTS FEW022CB BKN036 29/25 Q1013
  • 280000Z 07013KT 9999 FEW022CB BKN036 29/25 Q1012

TAF TAF MKJS
Valid from the 28 at 00:00 until the 29 at 00:00 UTC


272315Z 2800/2824 07010KT 9999 FEW020 FEW022CB
BECMG 2802/2804 13007KT FEW022
BECMG 2813/2815 07015KT
TEMPO 2818/2824 SCT020 FEW022CB
MKJK FIR / North America



MET'MAP, your aeronautical weather chart ! - Copyright ORBIFLY December 2007 - Disclaimer

ORBIFLY MET'MAP TEAM :

Programming & Development : Alexandra Zaïnal
Concept & original design : Baudouin d'Aumeries
Assistance for programming : Marc-Olivier Méhu
Technical & hardware support : Manuel Goepfert

Contact : metmap@orbifly.com




SOURCES & CREDITS :

   NOAA       Earth
Advisory